{"data":{"norad_id":58226,"epoch":"2026-09-20T10:12:37.145088Z","epoch_age_seconds":150149,"freshness":"FRESH","line1":"1 58226U 23170W   26263.42542992 -.00000206  00000+0  20400-5 0  9991","line2":"2 58226  43.0014 163.2531 0000951 277.0132  83.0611 15.27574824160219","mean_motion":15.27574824,"eccentricity":9.51e-5,"inclination_deg":43.0014,"raan_deg":163.2531,"arg_perigee_deg":277.0132,"mean_anomaly_deg":83.0611,"bstar":2.04e-6,"rev_number":16021,"period_min":94.267068124972,"perigee_km":482.4120946178,"apogee_km":483.71709516115,"semimajor_km":6861.2015948895,"source":"CELESTRAK","updated_at":"2026-09-21T09:00:33.835274Z"}}